Location: ?????????
(38.4921°N, 22.9787°E)
Time: 04:17:57
(UTC+00:00)

Cosmos 1937 Rocket - Pass Details

Date: 08 December 2025
Orbit: 743 x 775 km, 74.0° (Epoch: 21 January)

Event Time Altitude Azimuth Distance (km) Brightness Sun altitude
Exits shadow 04:25:37 - 331° (NNW) 2,333 5.6 -12.9°
Reaches altitude 10° 04:25:48 10° 331° (NNW) 2,260 5.5 -12.8°
Maximum altitude 04:30:44 50° 257° (WSW) 939 3.6 -11.9°
Drops below altitude 10° 04:35:39 10° 182° (S) 2,254 6.2 -11.0°
Sets 04:38:03 0° 177° (S) 3,177 7.0 -10.6°
